Preview of NWS' New Version of Forecast
This preview is not operational and should not be used for support decisions.

Regional Weather Roundup (RWR)

Issued by National Weather Service (NWS)

                            
000
ASPQ40 PGUM 230810
RWRPQ 
WEATHER ROUNDUP FOR THE MARIANAS AND MICRONESIA
NATIONAL WEATHER SERVICE TIYAN GU
600 PM CHST FRI AUG 23 2019

GUZ001>004-230900-
MARIANA ISLANDS-
  
CITY           SKY/WX    TMP DP  RH WIND       PRES   REMARKS
GUAM AIRPORT   MOCLDY    84  77  79 NE13      29.80R HX  94           
ANDERSEN AFB   CLOUDY    82  77  83 E13       29.82R HX  91           
ROTA AIRPORT   MOCLDY    82  75  78 NE12      29.78R                  
TINIAN AP      PTCLDY    86  77  74 E17       29.79R HX  97           
SAIPAN AP      PTCLDY    86  77  74 NE16      29.80R HX  97           

$$

PMZ161-230900-
REPUBLIC OF PALAU-
  
CITY           SKY/WX    TMP DP  RH WIND       PRES   REMARKS
KOROR AP       CLOUDY    84  75  74 SW9       29.81S HX  92           
KOROR WSO      NOT AVBL                                               

$$

PMZ171>174-230900-
FEDERATED STATES OF MICRONESIA-
  
CITY           SKY/WX    TMP DP  RH WIND       PRES   REMARKS
YAP AIRPORT    CLOUDY    86  75  70 N9        29.81R HX  95           
CHUUK AP       CLOUDY    82  77  83 VRB3      29.75F HX  91           
POHNPEI AP     NOT AVBL                                               
POHNPEI WSO    CLOUDY    81  79  94 CALM      29.86R                  
KOSRAE AP      NOT AVBL                                               

$$

PMZ181-230900-
REPUBLIC OF THE MARSHALL ISLANDS-
  
CITY           SKY/WX    TMP DP  RH WIND       PRES   REMARKS
KWAJALEIN AP   MOCLDY    84  75  74 NE9       29.86R HX  92           
MAJURO AP      MOCLDY    84  77  79 E12       29.84R HX  94           
MAJURO WSO     NOT AVBL                                               

$$